Time,TemperatureF,DewpointF,PressureIn,WindDirection,WindDirectionDegrees,WindSpeedMPH,WindSpeedGustMPH,Humidity,HourlyPrecipIn,Conditions,Clouds,dailyrainin,SoftwareType,DateUTC
2013-01-09 00:02:00,51.9,46.0,30.22,SW,219,0.0,1.0,80,0.00,,,0.00,weatherlink.com 1.10,2013-01-09 06:02:00,
2013-01-09 00:17:00,52.8,46.0,30.22,SSW,192,1.0,1.0,79,0.00,,,0.00,weatherlink.com 1.10,2013-01-09 06:17:00,
2013-01-09 00:32:00,53.8,47.0,30.23,ENE,77,0.0,1.0,78,0.00,,,0.00,weatherlink.com 1.10,2013-01-09 06:32:00,
2013-01-09 00:47:00,54.2,47.0,30.23,SSW,205,1.0,2.0,78,0.00,,,0.00,weatherlink.com 1.10,2013-01-09 06:47:00,
2013-01-09 01:02:00,54.3,48.0,30.23,South,184,0.0,1.0,78,0.00,,,0.00,weatherlink.com 1.10,2013-01-09 07:02:00,
2013-01-09 01:17:00,53.9,48.0,30.23,SSE,154,0.0,1.0,79,0.00,,,0.00,weatherlink.com 1.10,2013-01-09 07:17:00,
2013-01-09 01:32:00,54.0,48.0,30.24,SSE,153,0.0,1.0,79,0.00,,,0.00,weatherlink.com 1.10,2013-01-09 07:32:00,
2013-01-09 02:02:00,54.0,49.0,30.24,SSE,153,0.0,1.0,82,0.00,,,0.00,weatherlink.com 1.10,2013-01-09 08:02:00,
2013-01-09 02:17:00,53.8,49.0,30.24,SSE,153,0.0,1.0,85,0.00,,,0.00,weatherlink.com 1.10,2013-01-09 08:17:00,
2013-01-09 02:32:00,53.6,51.0,30.24,SSE,153,0.0,1.0,89,0.08,,,0.08,weatherlink.com 1.10,2013-01-09 08:32:00,
2013-01-09 02:47:00,53.0,51.0,30.23,SSE,154,0.0,-999.0,91,-99.99,,,0.09,weatherlink.com 1.10,2013-01-09 08:47:00,
2013-01-09 03:02:00,52.7,51.0,30.24,SSE,153,0.0,0.0,92,0.10,,,0.10,weatherlink.com 1.10,2013-01-09 09:02:00,
2013-01-09 03:17:00,52.5,51.0,30.24,SSE,154,0.0,1.0,93,0.11,,,0.11,weatherlink.com 1.10,2013-01-09 09:17:00,
2013-01-09 03:32:00,52.3,50.0,30.25,SSE,153,0.0,0.0,93,0.04,,,0.12,weatherlink.com 1.10,2013-01-09 09:32:00,
2013-01-09 03:47:00,52.1,51.0,30.25,SSE,153,0.0,0.0,94,0.05,,,0.14,weatherlink.com 1.10,2013-01-09 09:47:00,
2013-01-09 04:02:00,52.0,50.0,30.25,SSE,154,0.0,1.0,94,0.07,,,0.17,weatherlink.com 1.10,2013-01-09 10:02:00,
2013-01-09 04:17:00,51.7,50.0,30.25,SSE,153,0.0,0.0,94,0.08,,,0.19,weatherlink.com 1.10,2013-01-09 10:17:00,
2013-01-09 04:32:00,51.7,50.0,30.25,SSE,153,0.0,0.0,95,0.09,,,0.21,weatherlink.com 1.10,2013-01-09 10:32:00,
2013-01-09 04:47:00,51.6,50.0,30.25,SSE,153,0.0,0.0,95,0.08,,,0.22,weatherlink.com 1.10,2013-01-09 10:47:00,
2013-01-09 05:03:00,51.8,51.0,30.25,SSE,153,0.0,1.0,95,0.06,,,0.23,weatherlink.com 1.10,2013-01-09 11:03:00,
2013-01-09 05:17:00,51.8,51.0,30.26,SSE,153,0.0,0.0,95,0.04,,,0.23,weatherlink.com 1.10,2013-01-09 11:17:00,
2013-01-09 05:33:00,51.8,51.0,30.26,SSE,153,0.0,0.0,96,0.02,,,0.23,weatherlink.com 1.10,2013-01-09 11:33:00,
2013-01-09 05:48:00,51.8,51.0,30.27,SSE,153,0.0,1.0,96,0.02,,,0.24,weatherlink.com 1.10,2013-01-09 11:48:00,
2013-01-09 06:03:00,51.8,51.0,30.27,SSE,151,0.0,0.0,96,0.01,,,0.24,weatherlink.com 1.10,2013-01-09 12:03:00,
2013-01-09 06:18:00,51.9,51.0,30.28,SE,135,0.0,0.0,96,0.01,,,0.24,weatherlink.com 1.10,2013-01-09 12:18:00,
2013-01-09 06:33:00,51.8,51.0,30.28,SE,135,0.0,0.0,96,0.01,,,0.24,weatherlink.com 1.10,2013-01-09 12:33:00,
2013-01-09 06:48:00,51.7,51.0,30.29,SE,136,0.0,0.0,96,0.00,,,0.24,weatherlink.com 1.10,2013-01-09 12:48:00,
2013-01-09 07:03:00,51.7,51.0,30.30,SE,135,0.0,0.0,96,0.00,,,0.24,weatherlink.com 1.10,2013-01-09 13:03:00,
2013-01-09 07:18:00,51.8,51.0,30.30,ESE,117,0.0,0.0,96,0.00,,,0.24,weatherlink.com 1.10,2013-01-09 13:18:00,
2013-01-09 07:33:00,51.8,51.0,30.31,ESE,117,0.0,0.0,96,0.00,,,0.24,weatherlink.com 1.10,2013-01-09 13:33:00,
2013-01-09 07:48:00,51.8,51.0,30.32,ESE,117,0.0,0.0,96,0.00,,,0.24,weatherlink.com 1.10,2013-01-09 13:48:00,
2013-01-09 08:03:00,52.0,51.0,30.33,ESE,117,0.0,0.0,97,0.00,,,0.24,weatherlink.com 1.10,2013-01-09 14:03:00,
2013-01-09 08:18:00,52.2,51.0,30.34,ESE,117,0.0,0.0,97,0.00,,,0.24,weatherlink.com 1.10,2013-01-09 14:18:00,
2013-01-09 08:33:00,52.5,52.0,30.34,ESE,117,0.0,1.0,97,0.00,,,0.24,weatherlink.com 1.10,2013-01-09 14:33:00,
2013-01-09 08:48:00,52.6,52.0,30.35,NNE,20,1.0,3.0,97,0.01,,,0.25,weatherlink.com 1.10,2013-01-09 14:48:00,
2013-01-09 09:03:00,52.6,52.0,30.35,NNE,28,1.0,5.0,97,0.02,,,0.26,weatherlink.com 1.10,2013-01-09 15:03:00,
2013-01-09 09:18:00,52.6,52.0,30.35,North,352,2.0,4.0,97,0.02,,,0.26,weatherlink.com 1.10,2013-01-09 15:18:00,
2013-01-09 09:33:00,52.6,52.0,30.36,NNE,20,2.0,6.0,97,0.02,,,0.26,weatherlink.com 1.10,2013-01-09 15:33:00,
2013-01-09 09:48:00,52.8,52.0,30.36,North,356,2.0,5.0,97,0.01,,,0.26,weatherlink.com 1.10,2013-01-09 15:48:00,
2013-01-09 10:03:00,53.0,52.0,30.36,NE,41,2.0,4.0,97,0.00,,,0.26,weatherlink.com 1.10,2013-01-09 16:03:00,
2013-01-09 10:18:00,52.9,52.0,30.36,NNW,347,6.0,6.0,96,0.01,,,0.27,weatherlink.com 1.10,2013-01-09 16:18:00,
2013-01-09 10:33:00,52.6,52.0,30.36,NNE,27,0.0,6.0,96,0.01,,,0.27,weatherlink.com 1.10,2013-01-09 16:33:00,
2013-01-09 10:48:00,52.3,51.0,30.36,North,9,5.0,6.0,96,0.01,,,0.27,weatherlink.com 1.10,2013-01-09 16:48:00,
2013-01-09 11:03:00,52.1,51.0,30.35,NE,37,1.0,4.0,96,0.03,,,0.29,weatherlink.com 1.10,2013-01-09 17:03:00,
2013-01-09 11:18:00,52.1,51.0,30.35,NW,323,1.0,4.0,96,0.02,,,0.29,weatherlink.com 1.10,2013-01-09 17:18:00,
2013-01-09 11:33:00,52.3,51.0,30.34,NNE,15,2.0,4.0,96,0.02,,,0.29,weatherlink.com 1.10,2013-01-09 17:33:00,
2013-01-09 11:48:00,52.7,52.0,30.33,East,79,1.0,4.0,96,0.02,,,0.29,weatherlink.com 1.10,2013-01-09 17:48:00,
2013-01-09 12:03:00,53.0,52.0,30.32,ENE,63,0.0,1.0,96,0.00,,,0.29,weatherlink.com 1.10,2013-01-09 18:03:00,
2013-01-09 12:18:00,53.2,52.0,30.31,ENE,67,0.0,1.0,96,0.00,,,0.29,weatherlink.com 1.10,2013-01-09 18:18:00,
2013-01-09 12:33:00,53.5,52.0,30.31,ENE,67,0.0,1.0,96,0.00,,,0.29,weatherlink.com 1.10,2013-01-09 18:33:00,
2013-01-09 12:48:00,53.6,53.0,30.30,NNE,18,0.0,1.0,96,0.01,,,0.30,weatherlink.com 1.10,2013-01-09 18:48:00,
2013-01-09 13:03:00,54.1,53.0,30.30,NNE,25,1.0,1.0,96,0.01,,,0.30,weatherlink.com 1.10,2013-01-09 19:03:00,
2013-01-09 13:18:00,54.4,53.0,30.29,NNE,32,0.0,2.0,96,0.01,,,0.30,weatherlink.com 1.10,2013-01-09 19:18:00,
2013-01-09 13:33:00,54.9,54.0,30.29,NE,47,0.0,1.0,96,0.01,,,0.30,weatherlink.com 1.10,2013-01-09 19:33:00,
2013-01-09 13:48:00,55.1,54.0,30.28,NE,49,1.0,1.0,96,0.00,,,0.30,weatherlink.com 1.10,2013-01-09 19:48:00,
2013-01-09 14:03:00,55.1,54.0,30.28,NNW,347,1.0,2.0,96,0.00,,,0.30,weatherlink.com 1.10,2013-01-09 20:03:00,
2013-01-09 14:18:00,55.1,54.0,30.28,North,359,3.0,3.0,96,0.00,,,0.30,weatherlink.com 1.10,2013-01-09 20:18:00,
2013-01-09 14:33:00,55.1,54.0,30.29,ENE,70,2.0,2.0,96,0.00,,,0.30,weatherlink.com 1.10,2013-01-09 20:33:00,
2013-01-09 14:48:00,55.2,54.0,30.28,North,355,3.0,4.0,96,0.00,,,0.30,weatherlink.com 1.10,2013-01-09 20:48:00,
2013-01-09 15:03:00,55.3,54.0,30.29,NNE,12,2.0,6.0,96,0.00,,,0.30,weatherlink.com 1.10,2013-01-09 21:03:00,
2013-01-09 15:18:00,55.1,54.0,30.28,NNE,23,3.0,7.0,96,0.00,,,0.30,weatherlink.com 1.10,2013-01-09 21:18:00,
2013-01-09 15:33:00,54.9,54.0,30.28,NW,308,2.0,7.0,96,0.00,,,0.30,weatherlink.com 1.10,2013-01-09 21:33:00,
2013-01-09 15:48:00,54.9,54.0,30.28,NE,37,4.0,6.0,96,0.00,,,0.30,weatherlink.com 1.10,2013-01-09 21:48:00,
2013-01-09 16:03:00,54.8,54.0,30.29,North,354,5.0,7.0,96,0.00,,,0.30,weatherlink.com 1.10,2013-01-09 22:03:00,
2013-01-09 16:18:00,54.8,54.0,30.29,NNE,25,4.0,6.0,96,0.00,,,0.30,weatherlink.com 1.10,2013-01-09 22:18:00,
2013-01-09 16:33:00,54.5,53.0,30.29,ENE,58,4.0,5.0,96,0.01,,,0.31,weatherlink.com 1.10,2013-01-09 22:33:00,
2013-01-09 16:48:00,54.1,53.0,30.30,North,358,3.0,10.0,96,0.02,,,0.32,weatherlink.com 1.10,2013-01-09 22:48:00,
2013-01-09 17:03:00,54.0,53.0,30.30,NNE,23,3.0,8.0,96,0.03,,,0.33,weatherlink.com 1.10,2013-01-09 23:03:00,
2013-01-09 17:18:00,53.9,53.0,30.30,North,9,3.0,4.0,96,0.05,,,0.35,weatherlink.com 1.10,2013-01-09 23:18:00,
2013-01-09 17:33:00,53.9,53.0,30.30,NNE,25,4.0,5.0,96,0.06,,,0.37,weatherlink.com 1.10,2013-01-09 23:33:00,
2013-01-09 17:48:00,54.0,53.0,30.31,NNE,27,5.0,6.0,96,0.06,,,0.38,weatherlink.com 1.10,2013-01-09 23:48:00,
2013-01-09 18:03:00,53.9,53.0,30.31,North,4,2.0,5.0,96,0.06,,,0.39,weatherlink.com 1.10,2013-01-10 00:03:00,
2013-01-09 18:18:00,54.0,53.0,30.31,NNE,20,3.0,5.0,96,0.05,,,0.40,weatherlink.com 1.10,2013-01-10 00:18:00,
2013-01-09 18:33:00,53.9,53.0,30.30,NNE,14,4.0,6.0,96,0.04,,,0.41,weatherlink.com 1.10,2013-01-10 00:33:00,
2013-01-09 18:48:00,53.9,53.0,30.30,NNE,18,4.0,5.0,96,0.05,,,0.43,weatherlink.com 1.10,2013-01-10 00:48:00,
2013-01-09 19:03:00,53.9,53.0,30.31,NE,43,2.0,6.0,96,0.06,,,0.45,weatherlink.com 1.10,2013-01-10 01:03:00,
2013-01-09 19:18:00,53.9,53.0,30.30,ESE,108,3.0,5.0,96,0.05,,,0.45,weatherlink.com 1.10,2013-01-10 01:18:00,
2013-01-09 19:33:00,54.0,53.0,30.31,NE,41,1.0,5.0,96,0.05,,,0.46,weatherlink.com 1.10,2013-01-10 01:33:00,
2013-01-09 19:48:00,53.9,53.0,30.30,NNE,19,3.0,6.0,96,0.04,,,0.47,weatherlink.com 1.10,2013-01-10 01:48:00,
2013-01-09 20:04:00,54.0,53.0,30.30,NNE,18,3.0,5.0,96,0.03,,,0.48,weatherlink.com 1.10,2013-01-10 02:04:00,
2013-01-09 20:19:00,54.1,53.0,30.30,NNE,12,0.0,4.0,96,0.04,,,0.49,weatherlink.com 1.10,2013-01-10 02:19:00,
2013-01-09 20:34:00,54.2,53.0,30.30,NNE,19,1.0,6.0,97,0.06,,,0.52,weatherlink.com 1.10,2013-01-10 02:34:00,
2013-01-09 20:49:00,54.4,54.0,30.30,NNE,30,1.0,6.0,97,0.11,,,0.58,weatherlink.com 1.10,2013-01-10 02:49:00,
2013-01-09 21:04:00,54.4,54.0,30.30,North,356,0.0,4.0,97,0.14,,,0.62,weatherlink.com 1.10,2013-01-10 03:04:00,
2013-01-09 21:19:00,54.4,54.0,30.30,East,84,0.0,5.0,97,0.18,,,0.67,weatherlink.com 1.10,2013-01-10 03:19:00,
2013-01-09 21:34:00,54.5,54.0,30.30,North,4,2.0,3.0,97,0.18,,,0.70,weatherlink.com 1.10,2013-01-10 03:34:00,
2013-01-09 21:49:00,54.5,54.0,30.31,NNE,14,0.0,2.0,97,0.14,,,0.72,weatherlink.com 1.10,2013-01-10 03:49:00,
2013-01-09 22:04:00,54.4,54.0,30.31,North,11,0.0,1.0,97,0.15,,,0.77,weatherlink.com 1.10,2013-01-10 04:04:00,
2013-01-09 22:19:00,54.4,54.0,30.32,NE,41,0.0,1.0,97,0.24,,,0.91,weatherlink.com 1.10,2013-01-10 04:19:00,
2013-01-09 22:49:00,54.5,54.0,30.30,North,358,4.0,5.0,97,0.25,,,0.97,weatherlink.com 1.10,2013-01-10 04:49:00,
2013-01-09 23:04:00,54.6,54.0,30.30,North,8,0.0,4.0,97,0.21,,,0.99,weatherlink.com 1.10,2013-01-10 05:04:00,
2013-01-09 23:19:00,54.6,54.0,30.30,NNE,20,1.0,4.0,97,0.08,,,1.00,weatherlink.com 1.10,2013-01-10 05:19:00,
2013-01-09 23:49:00,54.8,54.0,30.29,NE,37,1.0,2.0,97,0.07,,,1.05,weatherlink.com 1.10,2013-01-10 05:49:00,